Home > Weather > Bismarck > Past weeks

Flag for USA Past Weather in Bismarck, North Dakota, USA — Yesterday and Last 2 Weeks

Now
67 °F

Sunny.


Feels Like: 67 °F
Forecast: 61 / 85 °F
Wind: 7 mph from East

Location: Bismarck Municipal Airport

Current Time: Jul 29, 2016 at 10:34:11 PM

Latest Report: Jul 29, 2016 at 9:52 PM


Visibility: 10 mi

Pressure: 29.96 "Hg (28.22 "Hg at 513m altitude)

Humidity: 85%

Dew Point: 62 °F

Location of BismarckLocation

Past Weather in Bismarck — Graph

°F

Bismarck Temperature Yesterday

Maximum temperature yesterday: 74 °F (at 3:52 PM)
Minimum temperature yesterday: 63 °F (at 4:52 AM)
Average temperature yesterday: 69 °F

High & Low Weather Summary for the Past Weeks

 TemperatureHumidityPressure
High97 °F (Jul 20, 4:52 PM)100% (Jul 15, 5:52 AM)30.14 "Hg (Jul 15, 5:52 AM)
Low51 °F (Jul 15, 5:52 AM)32% (Jul 23, 6:52 PM)29.73 "Hg (Jul 16, 12:52 PM)
Average73 °F71%29.97 "Hg
* Reported Jul 14 8:52 PM — Jul 29 8:52 PM, Bismarck, Weather by CustomWeather, © 2016

Note: Actual official high and low records may vary slightly from our data, if they occured in-between our weather recording intervals... More about our weather records

Advertising

Bismarck Weather History for the Previous 24 Hours

Scroll right to see more
 ConditionsComfort  
Time TempWeatherWind HumidityBarometerVisibility
8:52 PM
Fri, Jul 29
75 °FSunny.8 mph64%29.96 "Hg10 mi
7:52 PM77 °FSunny.12 mph60%29.95 "Hg10 mi
6:52 PM80 °FSunny.13 mph54%29.96 "Hg10 mi
5:52 PM80 °FScattered clouds.10 mph52%29.97 "Hg10 mi
4:52 PM81 °FPassing clouds.7 mph47%29.98 "Hg10 mi
3:52 PM81 °FPassing clouds.6 mph45%30.00 "Hg10 mi
2:52 PM80 °FPartly sunny.7 mph47%30.02 "Hg10 mi
1:52 PM79 °FBroken clouds.No wind50%30.03 "Hg10 mi
12:52 PM76 °FPartly sunny.No wind56%30.05 "Hg10 mi
11:52 AM78 °FPartly sunny.No wind52%30.05 "Hg10 mi
10:52 AM75 °FSunny.No wind55%30.07 "Hg10 mi
9:52 AM73 °FSunny.3 mph69%30.07 "Hg10 mi
8:52 AM69 °FSunny.No wind79%30.08 "Hg10 mi
7:52 AM64 °FSunny.No wind84%30.09 "Hg10 mi
6:52 AM62 °FPassing clouds.No wind96%30.08 "Hg10 mi
5:52 AM63 °FOvercast.No wind93%30.08 "Hg10 mi
4:52 AM63 °FOvercast.3 mph93%30.09 "Hg10 mi
3:52 AM63 °FOvercast.6 mph90%30.10 "Hg10 mi
2:52 AM64 °FOvercast.3 mph81%30.10 "Hg10 mi
1:52 AM64 °FPassing clouds.5 mph78%30.10 "Hg10 mi
12:52 AM66 °FPassing clouds.3 mph70%30.10 "Hg10 mi
11:52 PM
Thu, Jul 28
69 °FOvercast.5 mph63%30.10 "Hg10 mi
10:52 PM69 °FPassing clouds.9 mph61%30.10 "Hg10 mi
Weather by CustomWeather, © 2016

See weather overviewHow to use our weather pages